| time (UTC) | temp F | wind direction | speed knots | gust knots | rain 1hr in | rain 24hr in | rain mn in | humidity % | barometer mb |
| 20260510160323 | 84 | 308 | 3.5 | 7.8 | 0.00 | 0.00 | 0.00 | 56 | 1016.4 |
| 20260510155316 | 84 | 17 | 0.9 | 5.2 | 0.00 | 0.00 | 0.00 | 58 | 1016.5 |
| 20260510154310 | 83 | 334 | 2.6 | 5.2 | 0.00 | 0.00 | 0.00 | 57 | 1016.6 |
| 20260510153311 | 83 | 336 | 0.9 | 7.8 | 0.00 | 0.00 | 0.00 | 52 | 1016.6 |
| 20260510152322 | 83 | 10 | 1.7 | 4.3 | 0.00 | 0.00 | 0.00 | 57 | 1016.5 |
| 20260510151318 | 82 | 5 | 3.5 | 7.8 | 0.00 | 0.00 | 0.00 | 60 | 1016.5 |
| 20260510150310 | 82 | 50 | 1.7 | 3.5 | 0.00 | 0.00 | 0.00 | 59 | 1016.4 |
| 20260510145324 | 80 | 53 | 2.6 | 7.0 | 0.00 | 0.00 | 0.00 | 61 | 1016.5 |
| 20260510144312 | 79 | 333 | 2.6 | 7.0 | 0.00 | 0.00 | 0.00 | 65 | 1016.4 |
| 20260510143330 | 79 | 333 | 2.6 | 5.2 | 0.00 | 0.00 | 0.00 | 68 | 1016.3 |
| 20260510142322 | 78 | 253 | 1.7 | 5.2 | 0.00 | 0.00 | 0.00 | 66 | 1016.4 |
| 20260510141311 | 77 | 360 | 1.7 | 7.0 | 0.00 | 0.00 | 0.00 | 73 | 1016.5 |
| 20260510140309 | 77 | 295 | 1.7 | 5.2 | 0.00 | 0.00 | 0.00 | 76 | 1016.4 |
| 20260510135317 | 76 | 5 | 2.6 | 6.1 | 0.00 | 0.04 | 0.00 | 77 | 1016.4 |
| 20260510134318 | 75 | 237 | 2.6 | 6.1 | 0.00 | 0.04 | 0.00 | 78 | 1016.3 |
| 20260510133334 | 74 | 275 | 1.7 | 4.3 | 0.00 | 0.04 | 0.00 | 79 | 1016.3 |
| 20260510132323 | 73 | 276 | 2.6 | 6.1 | 0.00 | 0.04 | 0.00 | 83 | 1016.3 |
| 20260510131312 | 72 | 206 | 2.6 | 5.2 | 0.00 | 0.04 | 0.00 | 85 | 1016.3 |
| 20260510130328 | 71 | 254 | 2.6 | 6.1 | 0.00 | 0.04 | 0.00 | 86 | 1016.2 |
| 20260510125318 | 70 | 277 | 3.5 | 6.1 | 0.00 | 0.08 | 0.00 | 88 | 1016.2 |
| 20260510124318 | 69 | 257 | 1.7 | 4.3 | 0.00 | 0.08 | 0.00 | 88 | 1016.3 |
| 20260510123330 | 69 | 255 | 2.6 | 6.1 | 0.00 | 0.08 | 0.00 | 88 | 1016.3 |
| 20260510122309 | 68 | 229 | 2.6 | 5.2 | 0.00 | 0.08 | 0.00 | 89 | 1016.0 |
| 20260510121331 | 68 | 252 | 2.6 | 6.1 | 0.00 | 0.08 | 0.00 | 89 | 1016.0 |
| 20260510120321 | 67 | 182 | 2.6 | 4.3 | 0.00 | 0.08 | 0.00 | 90 | 1015.8 |
| 20260510115319 | 67 | 224 | 2.6 | 3.5 | 0.00 | 0.08 | 0.00 | 90 | 1015.8 |
| 20260510114312 | 67 | 239 | 1.7 | 4.3 | 0.00 | 0.08 | 0.00 | 91 | 1015.6 |
| 20260510113333 | 66 | 247 | 1.7 | 4.3 | 0.00 | 0.08 | 0.00 | 91 | 1015.6 |
| 20260510112322 | 66 | 225 | 1.7 | 2.6 | 0.00 | 0.08 | 0.00 | 91 | 1015.4 |
| 20260510111314 | 66 | 180 | 1.7 | 4.3 | 0.00 | 0.08 | 0.00 | 91 | 1015.3 |
| 20260510110314 | 66 | 240 | 2.6 | 5.2 | 0.00 | 0.08 | 0.00 | 91 | 1015.1 |
| 20260510105327 | 66 | 239 | 2.6 | 6.1 | 0.00 | 0.08 | 0.00 | 91 | 1015.0 |
| 20260510104326 | 66 | 249 | 2.6 | 6.1 | 0.00 | 0.08 | 0.00 | 91 | 1014.8 |
| 20260510103317 | 66 | 250 | 1.7 | 4.3 | 0.00 | 0.08 | 0.00 | 91 | 1014.6 |
| 20260510102336 | 66 | 243 | 2.6 | 4.3 | 0.00 | 0.08 | 0.00 | 91 | 1014.5 |
| 20260510101313 | 66 | 228 | 1.7 | 3.5 | 0.00 | 0.08 | 0.00 | 92 | 1014.3 |
| 20260510100312 | 66 | 254 | 1.7 | 3.5 | 0.00 | 0.08 | 0.00 | 92 | 1014.2 |
| 20260510095325 | 66 | 209 | 1.7 | 3.5 | 0.00 | 0.08 | 0.00 | 92 | 1014.2 |
| 20260510094323 | 65 | 190 | 0.9 | 2.6 | 0.00 | 0.08 | 0.00 | 91 | 1014.1 |
| 20260510093337 | 65 | 207 | 1.7 | 2.6 | 0.00 | 0.08 | 0.00 | 91 | 1013.9 |
| 20260510092316 | 66 | 155 | 1.7 | 2.6 | 0.00 | 0.08 | 0.00 | 91 | 1013.9 |
| 20260510091311 | 66 | 222 | 0.9 | 4.3 | 0.00 | 0.08 | 0.00 | 91 | 1014.0 |
| 20260510090330 | 66 | 207 | 0.9 | 3.5 | 0.00 | 0.08 | 0.00 | 91 | 1013.8 |
| 20260510085325 | 66 | 213 | 0.9 | 2.6 | 0.00 | 0.08 | 0.00 | 91 | 1013.6 |
| 20260510084323 | 66 | 147 | 1.7 | 3.5 | 0.00 | 0.08 | 0.00 | 91 | 1013.6 |
| 20260510083323 | 66 | 192 | 1.7 | 2.6 | 0.00 | 0.08 | 0.00 | 91 | 1013.5 |
| 20260510082317 | 66 | 205 | 1.7 | 2.6 | 0.00 | 0.08 | 0.00 | 91 | 1013.4 |
| 20260510081315 | 66 | 187 | 1.7 | 2.6 | 0.00 | 0.08 | 0.00 | 91 | 1013.4 |
| 20260510080314 | 66 | 192 | 0.9 | 2.6 | 0.00 | 0.08 | 0.00 | 91 | 1013.3 |
| 20260510075312 | 66 | 204 | 1.7 | 3.5 | 0.00 | 0.08 | 0.00 | 91 | 1013.3 |
| 20260510074316 | 66 | 216 | 1.7 | 3.5 | 0.00 | 0.08 | 0.00 | 91 | 1013.5 |
| 20260510073312 | 66 | 199 | 1.7 | 3.5 | 0.00 | 0.08 | 0.00 | 91 | 1013.4 |
| 20260510072309 | 66 | 196 | 1.7 | 3.5 | 0.00 | 0.08 | 0.00 | 91 | 1013.2 |
| 20260510071311 | 66 | 214 | 1.7 | 2.6 | 0.00 | 0.08 | 0.00 | 90 | 1013.2 |
| 20260510070325 | 66 | 180 | 1.7 | 2.6 | 0.00 | 0.08 | 0.00 | 90 | 1013.1 |
| 20260510065341 | 66 | 226 | 0.9 | 2.6 | 0.00 | 0.08 | 0.00 | 90 | 1013.1 |
| 20260510064342 | 66 | 270 | 1.7 | 3.5 | 0.00 | 0.08 | 0.00 | 90 | 1013.2 |
| 20260510063316 | 66 | 255 | 1.7 | 2.6 | 0.00 | 0.08 | 0.00 | 90 | 1013.4 |
| 20260510062339 | 66 | 200 | 0.9 | 2.6 | 0.00 | 0.08 | 0.00 | 89 | 1013.3 |
| 20260510061339 | 66 | 238 | 0.9 | 1.7 | 0.00 | 0.08 | 0.00 | 89 | 1013.3 |
| 20260510060311 | 66 | 197 | 0.0 | 1.7 | 0.00 | 0.08 | 0.00 | 89 | 1013.3 |
| 20260510055333 | 67 | 164 | 0.9 | 2.6 | 0.00 | 0.08 | 0.00 | 89 | 1013.3 |
| 20260510054354 | 67 | 160 | 0.9 | 1.7 | 0.00 | 0.08 | 0.00 | 88 | 1013.3 |
| 20260510053324 | 67 | 247 | 0.9 | 1.7 | 0.00 | 0.08 | 0.00 | 88 | 1013.5 |
| 20260510052316 | 67 | 237 | 0.9 | 2.6 | 0.00 | 0.08 | 0.00 | 87 | 1013.7 |
| 20260510051316 | 68 | 271 | 0.9 | 2.6 | 0.00 | 0.08 | 0.00 | 87 | 1013.6 |
| 20260510050311 | 68 | 260 | 0.9 | 1.7 | 0.00 | 0.08 | 0.00 | 86 | 1013.7 |
| 20260510045332 | 68 | 266 | 0.9 | 1.7 | 0.00 | 0.08 | 0.00 | 86 | 1013.7 |
| 20260510044328 | 68 | 275 | 0.9 | 1.7 | 0.00 | 0.08 | 0.00 | 86 | 1013.7 |
| 20260510043313 | 68 | 284 | 0.9 | 2.6 | 0.00 | 0.08 | 0.00 | 86 | 1013.6 |
| 20260510042313 | 69 | 270 | 1.7 | 3.5 | 0.00 | 0.08 | 0.00 | 86 | 1013.7 |
| 20260510041309 | 69 | 242 | 1.7 | 3.5 | 0.00 | 0.08 | 0.00 | 86 | 1013.6 |
| 20260510040329 | 68 | 246 | 1.7 | 3.5 | 0.00 | 0.08 | 0.00 | 86 | 1013.6 |
| 20260510035324 | 68 | 223 | 1.7 | 3.5 | 0.00 | 0.08 | 0.02 | 87 | 1013.5 |
| 20260510034332 | 68 | 205 | 1.7 | 3.5 | 0.00 | 0.08 | 0.02 | 86 | 1013.4 |
| 20260510033326 | 68 | 221 | 1.7 | 3.5 | 0.00 | 0.08 | 0.02 | 86 | 1013.3 |
| 20260510032346 | 69 | 187 | 1.7 | 3.5 | 0.00 | 0.08 | 0.02 | 86 | 1013.2 |
| 20260510031321 | 69 | 186 | 1.7 | 3.5 | 0.00 | 0.08 | 0.02 | 85 | 1013.3 |
| 20260510030319 | 69 | 187 | 1.7 | 4.3 | 0.00 | 0.08 | 0.02 | 85 | 1013.3 |
| 20260510025319 | 69 | 195 | 0.9 | 2.6 | 0.00 | 0.08 | 0.02 | 85 | 1013.3 |
| 20260510024315 | 70 | 170 | 1.7 | 2.6 | 0.00 | 0.08 | 0.02 | 84 | 1013.3 |
| 20260510023311 | 70 | 181 | 0.9 | 2.6 | 0.00 | 0.08 | 0.02 | 84 | 1013.3 |
| 20260510022335 | 70 | 218 | 1.7 | 2.6 | 0.00 | 0.08 | 0.02 | 83 | 1013.2 |
| 20260510021338 | 70 | 228 | 1.7 | 3.5 | 0.00 | 0.08 | 0.02 | 83 | 1013.1 |
| 20260510020312 | 70 | 220 | 0.9 | 2.6 | 0.00 | 0.08 | 0.02 | 83 | 1013.0 |
| 20260510015316 | 71 | 232 | 0.9 | 1.7 | 0.00 | 0.08 | 0.02 | 82 | 1012.9 |
| 20260510014313 | 71 | 200 | 1.7 | 4.3 | 0.00 | 0.08 | 0.02 | 82 | 1012.8 |
| 20260510013315 | 71 | 167 | 1.7 | 3.5 | 0.00 | 0.08 | 0.02 | 82 | 1012.8 |
| 20260510012310 | 71 | 215 | 0.9 | 2.6 | 0.00 | 0.08 | 0.02 | 81 | 1012.6 |
| 20260510011333 | 72 | 192 | 0.9 | 1.7 | 0.00 | 0.08 | 0.02 | 80 | 1012.4 |
| 20260510010329 | 72 | 244 | 0.9 | 2.6 | 0.00 | 0.08 | 0.02 | 79 | 1012.4 |
| 20260510005330 | 73 | 225 | 1.7 | 3.5 | 0.00 | 0.08 | 0.02 | 79 | 1012.3 |
| 20260510004311 | 73 | 200 | 0.9 | 2.6 | 0.00 | 0.08 | 0.02 | 78 | 1012.3 |
| 20260510003327 | 74 | 190 | 1.7 | 3.5 | 0.00 | 0.08 | 0.02 | 77 | 1012.2 |
| 20260510002328 | 74 | 147 | 1.7 | 3.5 | 0.00 | 0.08 | 0.02 | 76 | 1012.2 |
| 20260510001323 | 74 | 163 | 1.7 | 3.5 | 0.00 | 0.08 | 0.02 | 75 | 1011.9 |
| 20260510000328 | 75 | 187 | 1.7 | 4.3 | 0.00 | 0.08 | 0.02 | 74 | 1012.0 |
| 20260509235321 | 75 | 225 | 1.7 | 3.5 | 0.00 | 0.08 | 0.02 | 74 | 1011.9 |
| 20260509234318 | 76 | 171 | 2.6 | 6.1 | 0.00 | 0.08 | 0.02 | 73 | 1011.8 |
| 20260509233322 | 76 | 196 | 2.6 | 5.2 | 0.00 | 0.08 | 0.02 | 73 | 1011.5 |
| 20260509232318 | 76 | 225 | 3.5 | 7.8 | 0.00 | 0.08 | 0.02 | 72 | 1011.7 |
| 20260509231313 | 77 | 168 | 2.6 | 7.0 | 0.00 | 0.08 | 0.02 | 72 | 1011.3 |
| 20260509230316 | 77 | 184 | 2.6 | 5.2 | 0.00 | 0.08 | 0.02 | 72 | 1011.1 |
| 20260509225311 | 77 | 240 | 2.6 | 6.1 | 0.00 | 0.08 | 0.02 | 72 | 1011.2 |
| 20260509224312 | 77 | 166 | 3.5 | 7.8 | 0.00 | 0.08 | 0.02 | 72 | 1011.1 |
| 20260509223309 | 77 | 221 | 3.5 | 8.7 | 0.00 | 0.08 | 0.02 | 71 | 1011.1 |
| 20260509222331 | 77 | 198 | 2.6 | 7.0 | 0.00 | 0.08 | 0.02 | 71 | 1011.1 |
| 20260509221348 | 78 | 205 | 3.5 | 7.8 | 0.00 | 0.08 | 0.02 | 70 | 1011.2 |
| 20260509220316 | 78 | 231 | 3.5 | 6.1 | 0.00 | 0.08 | 0.02 | 70 | 1011.1 |
| 20260509215352 | 79 | 101 | 2.6 | 9.6 | 0.00 | 0.08 | 0.02 | 69 | 1011.0 |
| 20260509214345 | 79 | 202 | 5.2 | 11.3 | 0.00 | 0.08 | 0.02 | 68 | 1011.2 |
| 20260509213323 | 78 | 162 | 3.5 | 8.7 | 0.00 | 0.08 | 0.02 | 71 | 1011.1 |
| 20260509212319 | 78 | 138 | 4.3 | 7.0 | 0.00 | 0.08 | 0.02 | 70 | 1011.3 |
| 20260509211311 | 78 | 186 | 2.6 | 7.8 | 0.00 | 0.08 | 0.02 | 70 | 1011.2 |
| 20260509210312 | 78 | 209 | 2.6 | 8.7 | 0.00 | 0.08 | 0.02 | 70 | 1011.2 |
| 20260509205330 | 78 | 120 | 1.7 | 7.8 | 0.00 | 0.08 | 0.02 | 71 | 1011.0 |
| 20260509204343 | 77 | 273 | 3.5 | 7.0 | 0.00 | 0.08 | 0.02 | 72 | 1010.9 |
| 20260509203324 | 77 | 235 | 3.5 | 7.0 | 0.00 | 0.08 | 0.02 | 71 | 1011.0 |
| 20260509202320 | 77 | 135 | 3.5 | 9.6 | 0.00 | 0.08 | 0.02 | 72 | 1011.0 |
| 20260509201320 | 78 | 217 | 5.2 | 8.7 | 0.00 | 0.08 | 0.02 | 71 | 1011.3 |
| 20260509200333 | 77 | 234 | 3.5 | 7.0 | 0.00 | 0.08 | 0.02 | 74 | 1011.2 |
| 20260509195328 | 76 | 178 | 2.6 | 4.3 | 0.00 | 0.08 | 0.02 | 75 | 1011.3 |
| 20260509194319 | 76 | 132 | 2.6 | 7.0 | 0.00 | 0.08 | 0.02 | 75 | 1011.6 |
| 20260509193316 | 76 | 128 | 2.6 | 7.0 | 0.00 | 0.08 | 0.02 | 76 | 1011.6 |
| 20260509192327 | 75 | 157 | 1.7 | 5.2 | 0.00 | 0.08 | 0.02 | 76 | 1011.8 |
| 20260509191326 | 75 | 203 | 2.6 | 4.3 | 0.00 | 0.08 | 0.02 | 77 | 1011.9 |
| 20260509190343 | 75 | 211 | 2.6 | 4.3 | 0.00 | 0.08 | 0.02 | 76 | 1011.9 |
| 20260509185322 | 75 | 147 | 2.6 | 4.3 | 0.00 | 0.08 | 0.02 | 75 | 1011.9 |
| 20260509184311 | 75 | 211 | 2.6 | 6.1 | 0.00 | 0.08 | 0.02 | 75 | 1012.1 |
| 20260509183309 | 76 | 174 | 2.6 | 5.2 | 0.00 | 0.08 | 0.02 | 74 | 1012.1 |
| 20260509182309 | 75 | 169 | 2.6 | 6.1 | 0.00 | 0.08 | 0.02 | 73 | 1012.0 |
| 20260509181323 | 75 | 234 | 3.5 | 8.7 | 0.00 | 0.08 | 0.02 | 74 | 1012.1 |
| 20260509180326 | 74 | 161 | 1.7 | 5.2 | 0.00 | 0.08 | 0.02 | 75 | 1012.4 |
| 20260509175314 | 74 | 228 | 2.6 | 7.0 | 0.00 | 0.08 | 0.02 | 74 | 1012.6 |
| 20260509174316 | 75 | 273 | 2.6 | 7.0 | 0.00 | 0.08 | 0.02 | 73 | 1012.6 |
| 20260509173309 | 75 | 201 | 1.7 | 6.1 | 0.00 | 0.08 | 0.02 | 73 | 1012.7 |
| 20260509172331 | 75 | 132 | 3.5 | 9.6 | 0.00 | 0.08 | 0.02 | 72 | 1012.7 |
| 20260509171321 | 76 | 231 | 3.5 | 6.1 | 0.00 | 0.08 | 0.02 | 72 | 1012.9 |
| 20260509170339 | 75 | 159 | 3.5 | 7.8 | 0.00 | 0.08 | 0.02 | 73 | 1012.8 |
| 20260509165328 | 74 | 125 | 2.6 | 7.0 | 0.00 | 0.08 | 0.02 | 75 | 1012.9 |
| 20260509164330 | 74 | 180 | 2.6 | 8.7 | 0.00 | 0.08 | 0.02 | 71 | 1012.9 |
| 20260509163326 | 74 | 171 | 3.5 | 7.8 | 0.00 | 0.08 | 0.02 | 69 | 1013.3 |
| 20260509162319 | 74 | 143 | 3.5 | 7.8 | 0.00 | 0.08 | 0.02 | 68 | 1013.2 |
| 20260509161321 | 75 | 148 | 5.2 | 9.6 | 0.00 | 0.08 | 0.02 | 68 | 1013.1 |